| time (UTC) | temp F | wind direction | speed MPH | gust MPH | rain 1hr in | rain 24hr in | rain mn in | humidity % | barometer mb |
| 20260905193626 | 80 | 71 | 1.0 | 3.0 | 0.00 | 0.00 | 0.00 | 59 | 1013.4 |
| 20260905193121 | 79 | 88 | 0.0 | 1.0 | 0.00 | 0.00 | 0.00 | 59 | 1013.2 |
| 20260905192617 | 80 | 26 | 2.0 | 3.0 | 0.00 | 0.00 | 0.00 | 59 | 1013.4 |
| 20260905192113 | 80 | 86 | 1.0 | 3.0 | 0.00 | 0.00 | 0.00 | 60 | 1013.6 |
| 20260905191612 | 78 | 74 | 2.0 | 2.0 | 0.00 | 0.00 | 0.00 | 57 | 1013.6 |
| 20260905191111 | 79 | 102 | 1.0 | 3.0 | 0.00 | 0.00 | 0.00 | 59 | 1013.3 |
| 20260905190609 | 80 | 356 | 3.0 | 3.0 | 0.00 | 0.00 | 0.00 | 59 | 1013.3 |
| 20260905190108 | 79 | 349 | 3.0 | 5.0 | 0.00 | 0.00 | 0.00 | 60 | 1013.6 |
| 20260905185607 | 80 | 39 | 2.0 | 3.0 | 0.00 | 0.00 | 0.00 | 58 | 1013.5 |
| 20260905185102 | 79 | 124 | 0.0 | 3.0 | 0.00 | 0.00 | 0.00 | 62 | 1013.5 |
| 20260905184556 | 80 | 100 | 1.0 | 3.0 | 0.00 | 0.00 | 0.00 | 59 | 1013.4 |
| 20260905184055 | 79 | 156 | 1.0 | 1.0 | 0.00 | 0.00 | 0.00 | 63 | 1013.5 |
| 20260905183549 | 78 | 121 | 1.0 | 3.0 | 0.00 | 0.00 | 0.00 | 64 | 1013.7 |
| 20260905183044 | 78 | 75 | 1.0 | 3.0 | 0.00 | 0.00 | 0.00 | 64 | 1013.8 |
| 20260905182539 | 79 | 83 | 3.0 | 5.0 | 0.00 | 0.00 | 0.00 | 62 | 1013.8 |
| 20260905182038 | 79 | 69 | 2.0 | 2.0 | 0.00 | 0.00 | 0.00 | 64 | 1013.5 |
| 20260905181533 | 79 | 112 | 3.0 | 3.0 | 0.00 | 0.00 | 0.00 | 63 | 1013.9 |
| 20260905181033 | 78 | 83 | 1.0 | 2.0 | 0.00 | 0.00 | 0.00 | 66 | 1013.8 |
| 20260905180527 | 77 | 83 | 1.0 | 5.0 | 0.00 | 0.00 | 0.00 | 65 | 1014.0 |
| 20260905180023 | 78 | 72 | 5.0 | 6.0 | 0.00 | 0.00 | 0.00 | 61 | 1013.9 |
| 20260905175522 | 78 | 47 | 3.0 | 5.0 | 0.00 | 0.00 | 0.00 | 63 | 1013.7 |
| 20260905175018 | 77 | 96 | 0.0 | 1.0 | 0.00 | 0.00 | 0.00 | 67 | 1013.9 |
| 20260905174513 | 79 | 113 | 1.0 | 3.0 | 0.00 | 0.00 | 0.00 | 65 | 1013.9 |
| 20260905174009 | 78 | 87 | 1.0 | 2.0 | 0.00 | 0.00 | 0.00 | 63 | 1013.9 |
| 20260905173505 | 78 | 52 | 2.0 | 3.0 | 0.00 | 0.00 | 0.00 | 64 | 1014.0 |
| 20260905173000 | 77 | 142 | 2.0 | 3.0 | 0.00 | 0.00 | 0.00 | 63 | 1014.1 |
| 20260905172458 | 77 | 101 | 0.0 | 2.0 | 0.00 | 0.00 | 0.00 | 65 | 1014.1 |
| 20260905171954 | 75 | 76 | 1.0 | 2.0 | 0.00 | 0.00 | 0.00 | 66 | 1014.1 |
| 20260905171450 | 77 | 119 | 0.0 | 3.0 | 0.00 | 0.00 | 0.00 | 66 | 1014.1 |
| 20260905170946 | 77 | 78 | 1.0 | 2.0 | 0.00 | 0.00 | 0.00 | 68 | 1014.1 |
| 20260905170442 | 77 | 91 | 1.0 | 2.0 | 0.00 | 0.00 | 0.00 | 65 | 1014.2 |
| 20260905165942 | 79 | 92 | 1.0 | 5.0 | 0.00 | 0.00 | 0.00 | 64 | 1014.1 |
| 20260905165437 | 79 | 98 | 1.0 | 2.0 | 0.00 | 0.00 | 0.00 | 62 | 1014.1 |
| 20260905164932 | 77 | 83 | 0.0 | 1.0 | 0.00 | 0.00 | 0.00 | 66 | 1014.5 |
| 20260905164426 | 76 | 165 | 1.0 | 1.0 | 0.00 | 0.00 | 0.00 | 66 | 1014.1 |
| 20260905163921 | 76 | 144 | 1.0 | 3.0 | 0.00 | 0.00 | 0.00 | 66 | 1014.2 |
| 20260905163418 | 76 | 100 | 2.0 | 2.0 | 0.00 | 0.00 | 0.00 | 65 | 1014.1 |
| 20260905162913 | 78 | 88 | 1.0 | 5.0 | 0.00 | 0.00 | 0.00 | 65 | 1014.2 |
| 20260905162408 | 76 | 158 | 1.0 | 5.0 | 0.00 | 0.00 | 0.00 | 65 | 1014.2 |
| 20260905161903 | 75 | 115 | 3.0 | 6.0 | 0.00 | 0.00 | 0.00 | 66 | 1014.2 |
| 20260905161402 | 75 | 42 | 3.0 | 3.0 | 0.00 | 0.00 | 0.00 | 66 | 1014.2 |
| 20260905160900 | 75 | 69 | 4.0 | 6.0 | 0.00 | 0.00 | 0.00 | 66 | 1014.0 |
| 20260905160354 | 76 | 67 | 3.0 | 5.0 | 0.00 | 0.00 | 0.00 | 69 | 1014.2 |
| 20260905155849 | 76 | 131 | 1.0 | 2.0 | 0.00 | 0.00 | 0.00 | 70 | 1014.0 |
| 20260905155349 | 74 | 192 | 1.0 | 3.0 | 0.00 | 0.00 | 0.00 | 67 | 1014.0 |
| 20260905154848 | 74 | 76 | 2.0 | 3.0 | 0.00 | 0.00 | 0.00 | 67 | 1014.3 |
| 20260905154344 | 76 | 76 | 1.0 | 2.0 | 0.00 | 0.00 | 0.00 | 67 | 1014.0 |
| 20260905153839 | 74 | 3 | 1.0 | 2.0 | 0.00 | 0.00 | 0.00 | 67 | 1014.2 |
| 20260905153336 | 74 | 80 | 1.0 | 3.0 | 0.00 | 0.00 | 0.00 | 68 | 1014.2 |
| 20260905152835 | 74 | 106 | 1.0 | 2.0 | 0.00 | 0.00 | 0.00 | 70 | 1014.1 |
| 20260905152334 | 74 | 71 | 1.0 | 3.0 | 0.00 | 0.00 | 0.00 | 70 | 1014.1 |
| 20260905151829 | 73 | 95 | 0.0 | 2.0 | 0.00 | 0.00 | 0.00 | 74 | 1014.1 |
| 20260905151325 | 74 | 102 | 1.0 | 3.0 | 0.00 | 0.00 | 0.00 | 70 | 1014.0 |
| 20260905150825 | 73 | 109 | 0.0 | 3.0 | 0.00 | 0.00 | 0.00 | 72 | 1014.3 |
| 20260905150320 | 72 | 108 | 1.0 | 3.0 | 0.00 | 0.00 | 0.00 | 74 | 1014.3 |
| 20260905145817 | 72 | 87 | 1.0 | 2.0 | 0.00 | 0.00 | 0.00 | 74 | 1014.4 |
| 20260905145316 | 73 | 99 | 1.0 | 3.0 | 0.00 | 0.00 | 0.00 | 71 | 1014.3 |
| 20260905144815 | 74 | 72 | 1.0 | 2.0 | 0.00 | 0.00 | 0.00 | 71 | 1014.2 |
| 20260905144312 | 73 | 113 | 1.0 | 7.0 | 0.00 | 0.00 | 0.00 | 72 | 1014.1 |
| 20260905143810 | 73 | 81 | 1.0 | 3.0 | 0.00 | 0.00 | 0.00 | 73 | 1014.2 |
| 20260905143305 | 73 | 12 | 1.0 | 2.0 | 0.00 | 0.00 | 0.00 | 72 | 1014.0 |
| 20260905142803 | 73 | 111 | 0.0 | 3.0 | 0.00 | 0.00 | 0.00 | 73 | 1014.1 |
| 20260905142257 | 72 | 114 | 1.0 | 10.0 | 0.00 | 0.00 | 0.00 | 75 | 1014.2 |
| 20260905141754 | 72 | 232 | 2.0 | 3.0 | 0.00 | 0.00 | 0.00 | 75 | 1014.2 |
| 20260905141249 | 72 | 52 | 1.0 | 5.0 | 0.00 | 0.00 | 0.00 | 75 | 1014.1 |
| 20260905140745 | 71 | 108 | 1.0 | 2.0 | 0.00 | 0.00 | 0.00 | 75 | 1014.0 |
| 20260905140245 | 71 | 77 | 2.0 | 2.0 | 0.00 | 0.00 | 0.00 | 76 | 1014.2 |
| 20260905135743 | 71 | 137 | 1.0 | 3.0 | 0.00 | 0.00 | 0.00 | 78 | 1014.2 |
| 20260905135240 | 71 | 98 | 1.0 | 6.0 | 0.00 | 0.00 | 0.00 | 78 | 1013.9 |
| 20260905134739 | 71 | 162 | 1.0 | 2.0 | 0.00 | 0.00 | 0.00 | 80 | 1014.0 |
| 20260905134239 | 71 | 86 | 1.0 | 2.0 | 0.00 | 0.00 | 0.00 | 79 | 1014.1 |
| 20260905133733 | 71 | 116 | 1.0 | 2.0 | 0.00 | 0.00 | 0.00 | 79 | 1014.1 |
| 20260905133229 | 70 | 76 | 1.0 | 2.0 | 0.00 | 0.00 | 0.00 | 81 | 1014.1 |
| 20260905132727 | 70 | 83 | 3.0 | 5.0 | 0.00 | 0.00 | 0.00 | 81 | 1014.1 |
| 20260905132223 | 70 | 47 | 3.0 | 3.0 | 0.00 | 0.00 | 0.00 | 81 | 1014.2 |
| 20260905131718 | 69 | 72 | 0.0 | 2.0 | 0.00 | 0.00 | 0.00 | 82 | 1014.3 |
| 20260905131213 | 69 | 39 | 3.0 | 3.0 | 0.00 | 0.00 | 0.00 | 84 | 1014.1 |
| 20260905130708 | 69 | 95 | 0.0 | 1.0 | 0.00 | 0.00 | 0.00 | 85 | 1014.0 |
| 20260905130207 | 68 | 95 | 1.0 | 2.0 | 0.00 | 0.00 | 0.00 | 86 | 1014.2 |
| 20260905125702 | 68 | 96 | 0.0 | 1.0 | 0.00 | 0.00 | 0.00 | 88 | 1014.4 |
| 20260905125158 | 67 | 104 | 0.0 | 1.0 | 0.00 | 0.00 | 0.00 | 89 | 1014.3 |
| 20260905124654 | 67 | 97 | 1.0 | 2.0 | 0.00 | 0.00 | 0.00 | 91 | 1014.3 |
| 20260905124150 | 66 | 98 | 1.0 | 1.0 | 0.00 | 0.00 | 0.00 | 92 | 1014.3 |
| 20260905123644 | 66 | 106 | 0.0 | 1.0 | 0.00 | 0.00 | 0.00 | 94 | 1014.4 |
| 20260905123142 | 65 | 100 | 0.0 | 0.0 | 0.00 | 0.00 | 0.00 | 94 | 1014.5 |
| 20260905122641 | 64 | 94 | 0.0 | 1.0 | 0.00 | 0.00 | 0.00 | 94 | 1014.2 |
| 20260905122136 | 64 | 104 | 0.0 | 0.0 | 0.00 | 0.00 | 0.00 | 94 | 1014.6 |
| 20260905121631 | 64 | 94 | 0.0 | 0.0 | 0.00 | 0.00 | 0.00 | 95 | 1014.4 |
| 20260905121126 | 63 | 91 | 0.0 | 0.0 | 0.00 | 0.00 | 0.00 | 95 | 1014.3 |
| 20260905120625 | 63 | 83 | 0.0 | 0.0 | 0.00 | 0.00 | 0.00 | 95 | 1014.8 |
| 20260905120120 | 62 | 78 | 0.0 | 0.0 | 0.00 | 0.00 | 0.00 | 95 | 1014.5 |
| 20260905115620 | 62 | 95 | 0.0 | 0.0 | 0.00 | 0.00 | 0.00 | 95 | 1014.5 |
| 20260905115115 | 62 | 87 | 0.0 | 0.0 | 0.00 | 0.00 | 0.00 | 95 | 1014.4 |
| 20260905114614 | 62 | 87 | 0.0 | 0.0 | 0.00 | 0.00 | 0.00 | 96 | 1014.2 |
| 20260905114113 | 61 | 88 | 0.0 | 0.0 | 0.00 | 0.00 | 0.00 | 96 | 1014.2 |
| 20260905113608 | 61 | 82 | 0.0 | 0.0 | 0.00 | 0.00 | 0.00 | 96 | 1014.2 |
| 20260905113104 | 61 | 89 | 0.0 | 0.0 | 0.00 | 0.00 | 0.00 | 96 | 1014.1 |
| 20260905112558 | 61 | 90 | 0.0 | 0.0 | 0.00 | 0.00 | 0.00 | 96 | 1014.2 |
| 20260905112053 | 60 | 97 | 0.0 | 0.0 | 0.00 | 0.00 | 0.00 | 96 | 1014.0 |
| 20260905111543 | 60 | 93 | 0.0 | 0.0 | 0.00 | 0.00 | 0.00 | 95 | 1013.8 |
| 20260905111042 | 60 | 88 | 0.0 | 0.0 | 0.00 | 0.00 | 0.00 | 95 | 1013.7 |
| 20260905110541 | 60 | 99 | 0.0 | 0.0 | 0.00 | 0.00 | 0.00 | 95 | 1013.4 |
| 20260905110037 | 60 | 96 | 0.0 | 0.0 | 0.00 | 0.00 | 0.00 | 95 | 1013.7 |
| 20260905105537 | 60 | 99 | 0.0 | 0.0 | 0.00 | 0.00 | 0.00 | 95 | 1013.7 |
| 20260905105036 | 60 | 98 | 0.0 | 0.0 | 0.00 | 0.00 | 0.00 | 95 | 1013.7 |
| 20260905104532 | 60 | 85 | 0.0 | 1.0 | 0.00 | 0.00 | 0.00 | 95 | 1013.5 |
| 20260905104031 | 60 | 92 | 0.0 | 0.0 | 0.00 | 0.00 | 0.00 | 95 | 1013.5 |
| 20260905103527 | 60 | 90 | 0.0 | 0.0 | 0.00 | 0.00 | 0.00 | 95 | 1013.5 |
| 20260905103023 | 60 | 97 | 0.0 | 0.0 | 0.00 | 0.00 | 0.00 | 95 | 1013.6 |
| 20260905102518 | 60 | 94 | 0.0 | 1.0 | 0.00 | 0.00 | 0.00 | 95 | 1013.8 |
| 20260905102015 | 60 | 90 | 0.0 | 1.0 | 0.00 | 0.00 | 0.00 | 95 | 1013.7 |
| 20260905101513 | 60 | 70 | 1.0 | 1.0 | 0.00 | 0.00 | 0.00 | 95 | 1013.6 |
| 20260905101011 | 60 | 66 | 1.0 | 1.0 | 0.00 | 0.00 | 0.00 | 95 | 1013.8 |
| 20260905100508 | 60 | 88 | 0.0 | 0.0 | 0.00 | 0.00 | 0.00 | 95 | 1013.4 |
| 20260905100008 | 61 | 86 | 0.0 | 0.0 | 0.00 | 0.00 | 0.00 | 95 | 1013.4 |
| 20260905095502 | 61 | 82 | 0.0 | 0.0 | 0.00 | 0.00 | 0.00 | 95 | 1013.4 |
| 20260905094957 | 61 | 86 | 0.0 | 0.0 | 0.00 | 0.00 | 0.00 | 95 | 1013.4 |
| 20260905094452 | 61 | 92 | 0.0 | 0.0 | 0.00 | 0.00 | 0.00 | 95 | 1013.3 |
| 20260905093951 | 61 | 90 | 0.0 | 0.0 | 0.00 | 0.00 | 0.00 | 95 | 1013.4 |
| 20260905093446 | 61 | 95 | 0.0 | 0.0 | 0.00 | 0.00 | 0.00 | 95 | 1013.2 |
| 20260905092942 | 61 | 89 | 0.0 | 1.0 | 0.00 | 0.00 | 0.00 | 95 | 1013.3 |
| 20260905092437 | 62 | 90 | 1.0 | 1.0 | 0.00 | 0.00 | 0.00 | 95 | 1013.3 |
| 20260905091932 | 62 | 97 | 0.0 | 1.0 | 0.00 | 0.00 | 0.00 | 95 | 1013.3 |
| 20260905091427 | 62 | 89 | 0.0 | 1.0 | 0.00 | 0.00 | 0.00 | 95 | 1013.1 |
| 20260905090926 | 62 | 80 | 0.0 | 0.0 | 0.00 | 0.00 | 0.00 | 95 | 1013.2 |
| 20260905090422 | 62 | 102 | 0.0 | 0.0 | 0.00 | 0.00 | 0.00 | 95 | 1013.3 |
| 20260905085921 | 62 | 91 | 0.0 | 0.0 | 0.00 | 0.00 | 0.00 | 95 | 1013.4 |
| 20260905085420 | 63 | 99 | 0.0 | 0.0 | 0.00 | 0.00 | 0.00 | 95 | 1013.3 |
| 20260905084916 | 63 | 77 | 1.0 | 1.0 | 0.00 | 0.00 | 0.00 | 95 | 1013.2 |
| 20260905084415 | 63 | 77 | 1.0 | 1.0 | 0.00 | 0.00 | 0.00 | 95 | 1013.4 |
| 20260905083910 | 63 | 96 | 0.0 | 0.0 | 0.00 | 0.00 | 0.00 | 95 | 1013.3 |
| 20260905083407 | 63 | 100 | 0.0 | 0.0 | 0.00 | 0.00 | 0.00 | 95 | 1013.2 |
| 20260905082902 | 63 | 101 | 0.0 | 0.0 | 0.00 | 0.00 | 0.00 | 95 | 1013.2 |
| 20260905082358 | 64 | 99 | 0.0 | 0.0 | 0.00 | 0.00 | 0.00 | 95 | 1013.3 |
| 20260905081853 | 64 | 99 | 0.0 | 0.0 | 0.00 | 0.00 | 0.00 | 95 | 1013.3 |
| 20260905081348 | 64 | 99 | 0.0 | 0.0 | 0.00 | 0.00 | 0.00 | 95 | 1013.2 |
| 20260905080846 | 64 | 90 | 0.0 | 0.0 | 0.00 | 0.00 | 0.00 | 95 | 1013.4 |
| 20260905080341 | 64 | 101 | 0.0 | 0.0 | 0.00 | 0.00 | 0.00 | 95 | 1013.5 |
| 20260905075839 | 65 | 103 | 0.0 | 0.0 | 0.00 | 0.00 | 0.00 | 95 | 1013.2 |
| 20260905075339 | 65 | 100 | 0.0 | 0.0 | 0.00 | 0.00 | 0.00 | 95 | 1013.3 |
| 20260905074839 | 65 | 101 | 0.0 | 0.0 | 0.00 | 0.00 | 0.00 | 95 | 1013.5 |
| 20260905074335 | 64 | 101 | 0.0 | 0.0 | 0.00 | 0.00 | 0.00 | 95 | 1013.2 |
| 20260905073830 | 64 | 101 | 0.0 | 0.0 | 0.00 | 0.00 | 0.00 | 95 | 1013.2 |
| 20260905073326 | 65 | 97 | 0.0 | 0.0 | 0.00 | 0.00 | 0.00 | 95 | 1013.3 |
| 20260905072826 | 65 | 98 | 0.0 | 1.0 | 0.00 | 0.00 | 0.00 | 95 | 1013.2 |
| 20260905072321 | 65 | 93 | 0.0 | 0.0 | 0.00 | 0.00 | 0.00 | 95 | 1013.4 |
| 20260905071817 | 65 | 99 | 0.0 | 0.0 | 0.00 | 0.00 | 0.00 | 95 | 1013.3 |
| 20260905071313 | 65 | 102 | 0.0 | 0.0 | 0.00 | 0.00 | 0.00 | 95 | 1013.3 |
| 20260905070808 | 65 | 98 | 0.0 | 1.0 | 0.00 | 0.00 | 0.00 | 95 | 1013.4 |
| 20260905070304 | 65 | 97 | 0.0 | 0.0 | 0.00 | 0.00 | 0.00 | 95 | 1013.2 |
| 20260905065757 | 65 | 102 | 0.0 | 0.0 | 0.00 | 0.00 | 0.00 | 94 | 1013.4 |
| 20260905065250 | 65 | 102 | 0.0 | 0.0 | 0.00 | 0.00 | 0.00 | 94 | 1013.2 |
| 20260905064746 | 65 | 102 | 0.0 | 0.0 | 0.00 | 0.00 | 0.00 | 94 | 1013.6 |
| 20260905064241 | 65 | 100 | 0.0 | 0.0 | 0.00 | 0.00 | 0.00 | 94 | 1013.5 |
| 20260905063740 | 65 | 102 | 0.0 | 0.0 | 0.00 | 0.00 | 0.00 | 94 | 1013.5 |
| 20260905063236 | 65 | 100 | 0.0 | 0.0 | 0.00 | 0.00 | 0.00 | 94 | 1013.6 |
| 20260905062732 | 65 | 102 | 0.0 | 0.0 | 0.00 | 0.00 | 0.00 | 94 | 1013.4 |
| 20260905062232 | 65 | 100 | 0.0 | 0.0 | 0.00 | 0.00 | 0.00 | 94 | 1013.7 |
| 20260905061731 | 65 | 102 | 0.0 | 0.0 | 0.00 | 0.00 | 0.00 | 94 | 1013.8 |
| 20260905061226 | 65 | 102 | 0.0 | 0.0 | 0.00 | 0.00 | 0.00 | 94 | 1013.8 |
| 20260905060720 | 65 | 101 | 0.0 | 0.0 | 0.00 | 0.00 | 0.00 | 94 | 1013.9 |
| 20260905060218 | 65 | 101 | 0.0 | 0.0 | 0.00 | 0.00 | 0.00 | 95 | 1013.8 |
| 20260905055715 | 65 | 101 | 0.0 | 0.0 | 0.00 | 0.00 | 0.00 | 95 | 1013.8 |
| 20260905055211 | 65 | 99 | 0.0 | 0.0 | 0.00 | 0.00 | 0.00 | 95 | 1013.8 |
| 20260905054706 | 65 | 102 | 0.0 | 0.0 | 0.00 | 0.00 | 0.00 | 95 | 1013.9 |
| 20260905054203 | 65 | 101 | 0.0 | 0.0 | 0.00 | 0.00 | 0.00 | 95 | 1013.9 |
| 20260905053702 | 65 | 99 | 0.0 | 0.0 | 0.00 | 0.00 | 0.00 | 95 | 1014.0 |
| 20260905053157 | 65 | 100 | 0.0 | 0.0 | 0.00 | 0.00 | 0.00 | 95 | 1014.1 |
| 20260905052657 | 65 | 98 | 0.0 | 0.0 | 0.00 | 0.00 | 0.00 | 95 | 1014.2 |
| 20260905052152 | 66 | 99 | 0.0 | 0.0 | 0.00 | 0.00 | 0.00 | 95 | 1014.1 |
| 20260905051646 | 66 | 88 | 0.0 | 0.0 | 0.00 | 0.00 | 0.00 | 95 | 1014.1 |
| 20260905051143 | 66 | 98 | 0.0 | 0.0 | 0.00 | 0.00 | 0.00 | 94 | 1014.1 |
| 20260905050639 | 66 | 95 | 0.0 | 0.0 | 0.00 | 0.00 | 0.00 | 94 | 1014.1 |
| 20260905050136 | 66 | 100 | 0.0 | 0.0 | 0.00 | 0.00 | 0.00 | 94 | 1014.4 |
| 20260905045635 | 66 | 96 | 0.0 | 0.0 | 0.00 | 0.00 | 0.00 | 94 | 1014.2 |
| 20260905045131 | 66 | 101 | 0.0 | 0.0 | 0.00 | 0.00 | 0.00 | 94 | 1014.2 |
| 20260905044631 | 66 | 101 | 0.0 | 0.0 | 0.00 | 0.00 | 0.00 | 94 | 1014.5 |
| 20260905044126 | 66 | 98 | 0.0 | 0.0 | 0.00 | 0.00 | 0.00 | 94 | 1014.5 |
| 20260905043624 | 66 | 98 | 0.0 | 0.0 | 0.00 | 0.00 | 0.00 | 94 | 1014.8 |
| 20260905043120 | 66 | 99 | 0.0 | 0.0 | 0.00 | 0.00 | 0.00 | 94 | 1014.5 |
| 20260905042618 | 66 | 96 | 0.0 | 0.0 | 0.00 | 0.00 | 0.00 | 94 | 1014.3 |
| 20260905042114 | 66 | 94 | 0.0 | 1.0 | 0.00 | 0.00 | 0.00 | 94 | 1014.5 |
| 20260905041609 | 66 | 63 | 1.0 | 1.0 | 0.00 | 0.00 | 0.00 | 94 | 1014.6 |
| 20260905041105 | 66 | 104 | 0.0 | 0.0 | 0.00 | 0.00 | 0.00 | 94 | 1014.2 |
| 20260905040605 | 66 | 106 | 0.0 | 0.0 | 0.00 | 0.00 | 0.00 | 94 | 1014.2 |
| 20260905040103 | 66 | 106 | 0.0 | 0.0 | 0.00 | 0.00 | 0.00 | 94 | 1014.3 |
| 20260905035559 | 66 | 106 | 0.0 | 0.0 | 0.00 | 0.10 | 0.10 | 94 | 1014.4 |
| 20260905035055 | 66 | 104 | 0.0 | 0.0 | 0.00 | 0.10 | 0.10 | 94 | 1014.6 |
| 20260905034551 | 66 | 105 | 0.0 | 0.0 | 0.00 | 0.10 | 0.10 | 94 | 1014.4 |
| 20260905034050 | 66 | 106 | 0.0 | 0.0 | 0.00 | 0.10 | 0.10 | 94 | 1014.4 |
| 20260905033545 | 66 | 107 | 0.0 | 0.0 | 0.00 | 0.10 | 0.10 | 94 | 1014.7 |
| 20260905033041 | 66 | 108 | 0.0 | 0.0 | 0.00 | 0.10 | 0.10 | 94 | 1014.6 |
| 20260905032540 | 65 | 108 | 0.0 | 0.0 | 0.00 | 0.10 | 0.10 | 94 | 1014.6 |
| 20260905032036 | 65 | 108 | 0.0 | 0.0 | 0.00 | 0.10 | 0.10 | 94 | 1014.7 |
| 20260905031532 | 66 | 107 | 0.0 | 0.0 | 0.00 | 0.10 | 0.10 | 94 | 1014.6 |
| 20260905031031 | 66 | 103 | 0.0 | 0.0 | 0.00 | 0.10 | 0.10 | 94 | 1014.6 |
| 20260905030527 | 66 | 93 | 0.0 | 1.0 | 0.00 | 0.10 | 0.10 | 94 | 1014.5 |
| 20260905030027 | 66 | 92 | 0.0 | 1.0 | 0.00 | 0.10 | 0.10 | 94 | 1014.4 |
| 20260905025522 | 66 | 90 | 0.0 | 1.0 | 0.00 | 0.10 | 0.10 | 94 | 1014.3 |
| 20260905025018 | 65 | 92 | 0.0 | 0.0 | 0.00 | 0.10 | 0.10 | 94 | 1014.5 |
| 20260905024513 | 65 | 105 | 0.0 | 0.0 | 0.00 | 0.10 | 0.10 | 94 | 1014.3 |
| 20260905024008 | 66 | 105 | 0.0 | 0.0 | 0.00 | 0.10 | 0.10 | 94 | 1014.2 |
| 20260905023503 | 66 | 106 | 0.0 | 0.0 | 0.00 | 0.10 | 0.10 | 94 | 1014.2 |
| 20260905023003 | 66 | 105 | 0.0 | 0.0 | 0.00 | 0.10 | 0.10 | 94 | 1014.4 |
| 20260905022457 | 66 | 101 | 0.0 | 0.0 | 0.00 | 0.10 | 0.10 | 94 | 1014.2 |
| 20260905021953 | 66 | 104 | 0.0 | 0.0 | 0.00 | 0.10 | 0.10 | 94 | 1014.2 |
| 20260905021452 | 67 | 79 | 1.0 | 1.0 | 0.00 | 0.10 | 0.10 | 94 | 1014.2 |
| 20260905020947 | 67 | 91 | 0.0 | 1.0 | 0.00 | 0.10 | 0.10 | 93 | 1014.4 |
| 20260905020442 | 67 | 97 | 0.0 | 0.0 | 0.00 | 0.10 | 0.10 | 93 | 1014.5 |
| 20260905015941 | 67 | 93 | 0.0 | 1.0 | 0.00 | 0.10 | 0.10 | 93 | 1014.5 |
| 20260905015440 | 66 | 94 | 0.0 | 0.0 | 0.00 | 0.10 | 0.10 | 94 | 1014.4 |
| 20260905014939 | 66 | 111 | 0.0 | 0.0 | 0.00 | 0.10 | 0.10 | 94 | 1014.5 |
| 20260905014435 | 66 | 112 | 0.0 | 0.0 | 0.00 | 0.10 | 0.10 | 94 | 1014.4 |
| 20260905013930 | 67 | 113 | 0.0 | 0.0 | 0.00 | 0.10 | 0.10 | 94 | 1014.3 |
| 20260905013427 | 67 | 113 | 0.0 | 0.0 | 0.00 | 0.10 | 0.10 | 93 | 1014.1 |
| 20260905012921 | 67 | 114 | 0.0 | 0.0 | 0.00 | 0.10 | 0.10 | 93 | 1014.4 |
| 20260905012417 | 67 | 115 | 0.0 | 0.0 | 0.00 | 0.10 | 0.10 | 93 | 1014.5 |
| 20260905011914 | 67 | 117 | 0.0 | 0.0 | 0.00 | 0.10 | 0.10 | 93 | 1014.3 |
| 20260905011409 | 67 | 117 | 0.0 | 0.0 | 0.00 | 0.10 | 0.10 | 93 | 1014.4 |
| 20260905010904 | 67 | 116 | 0.0 | 0.0 | 0.00 | 0.10 | 0.10 | 93 | 1014.3 |
| 20260905010359 | 68 | 122 | 0.0 | 1.0 | 0.00 | 0.10 | 0.10 | 93 | 1014.6 |
| 20260905005855 | 68 | 117 | 0.0 | 0.0 | 0.00 | 0.10 | 0.10 | 92 | 1014.4 |
| 20260905005351 | 68 | 112 | 0.0 | 0.0 | 0.00 | 0.10 | 0.10 | 92 | 1014.6 |
| 20260905004845 | 68 | 106 | 0.0 | 0.0 | 0.00 | 0.10 | 0.10 | 91 | 1014.5 |
| 20260905004340 | 68 | 106 | 0.0 | 0.0 | 0.00 | 0.10 | 0.10 | 91 | 1014.2 |
| 20260905003835 | 69 | 92 | 1.0 | 1.0 | 0.00 | 0.10 | 0.10 | 91 | 1014.2 |
| 20260905003331 | 69 | 102 | 0.0 | 0.0 | 0.00 | 0.10 | 0.10 | 89 | 1014.2 |
| 20260905002826 | 69 | 105 | 0.0 | 0.0 | 0.00 | 0.10 | 0.10 | 88 | 1014.2 |
| 20260905002320 | 70 | 100 | 0.0 | 1.0 | 0.00 | 0.10 | 0.10 | 88 | 1014.3 |
| 20260905001816 | 70 | 88 | 0.0 | 1.0 | 0.00 | 0.10 | 0.10 | 86 | 1014.3 |
| 20260905001315 | 70 | 98 | 0.0 | 0.0 | 0.00 | 0.10 | 0.10 | 85 | 1014.2 |
| 20260905000811 | 70 | 100 | 0.0 | 0.0 | 0.00 | 0.10 | 0.10 | 86 | 1014.1 |
| 20260905000306 | 71 | 105 | 0.0 | 0.0 | 0.00 | 0.10 | 0.10 | 85 | 1014.0 |
| 20260904235801 | 71 | 110 | 0.0 | 0.0 | 0.00 | 0.10 | 0.10 | 85 | 1014.1 |
| 20260904235256 | 71 | 112 | 0.0 | 0.0 | 0.00 | 0.10 | 0.10 | 84 | 1014.1 |
| 20260904234751 | 71 | 117 | 0.0 | 0.0 | 0.00 | 0.10 | 0.10 | 84 | 1014.1 |
| 20260904234246 | 72 | 115 | 0.0 | 0.0 | 0.00 | 0.10 | 0.10 | 83 | 1014.1 |
| 20260904233742 | 72 | 123 | 0.0 | 0.0 | 0.00 | 0.10 | 0.10 | 82 | 1013.9 |
| 20260904233238 | 72 | 120 | 0.0 | 0.0 | 0.00 | 0.10 | 0.10 | 82 | 1013.8 |
| 20260904232734 | 73 | 115 | 0.0 | 0.0 | 0.00 | 0.10 | 0.10 | 82 | 1014.0 |
| 20260904232230 | 74 | 112 | 0.0 | 0.0 | 0.00 | 0.10 | 0.10 | 81 | 1013.9 |
| 20260904231725 | 74 | 110 | 0.0 | 1.0 | 0.00 | 0.10 | 0.10 | 79 | 1013.8 |
| 20260904231221 | 75 | 114 | 0.0 | 0.0 | 0.00 | 0.10 | 0.10 | 78 | 1014.0 |
| 20260904230720 | 75 | 111 | 0.0 | 1.0 | 0.00 | 0.10 | 0.10 | 76 | 1014.0 |
| 20260904230215 | 76 | 94 | 0.0 | 1.0 | 0.00 | 0.10 | 0.10 | 76 | 1013.9 |
| 20260904225714 | 76 | 105 | 0.0 | 1.0 | 0.00 | 0.10 | 0.10 | 73 | 1013.7 |
| 20260904225208 | 76 | 218 | 3.0 | 5.0 | 0.00 | 0.10 | 0.10 | 73 | 1013.8 |
| 20260904224707 | 77 | 77 | 1.0 | 2.0 | 0.00 | 0.10 | 0.10 | 72 | 1013.7 |
| 20260904224203 | 77 | 105 | 0.0 | 1.0 | 0.00 | 0.10 | 0.10 | 71 | 1014.0 |
| 20260904223702 | 78 | 85 | 2.0 | 2.0 | 0.00 | 0.10 | 0.10 | 70 | 1014.1 |
| 20260904223157 | 78 | 111 | 1.0 | 2.0 | 0.00 | 0.10 | 0.10 | 70 | 1014.0 |
| 20260904222653 | 78 | 34 | 2.0 | 3.0 | 0.00 | 0.10 | 0.10 | 69 | 1013.7 |
| 20260904222148 | 78 | 113 | 2.0 | 6.0 | 0.00 | 0.10 | 0.10 | 69 | 1013.8 |
| 20260904221648 | 78 | 101 | 1.0 | 3.0 | 0.00 | 0.10 | 0.10 | 68 | 1013.8 |
| 20260904221143 | 79 | 79 | 1.0 | 2.0 | 0.00 | 0.10 | 0.10 | 68 | 1013.8 |
| 20260904220637 | 79 | 0 | 2.0 | 2.0 | 0.00 | 0.10 | 0.10 | 67 | 1013.9 |
| 20260904220132 | 80 | 111 | 1.0 | 2.0 | 0.00 | 0.10 | 0.10 | 66 | 1013.6 |
| 20260904215627 | 81 | 68 | 1.0 | 5.0 | 0.00 | 0.10 | 0.10 | 66 | 1013.5 |
| 20260904215123 | 82 | 104 | 1.0 | 6.0 | 0.00 | 0.10 | 0.10 | 63 | 1013.6 |
| 20260904214623 | 82 | 338 | 2.0 | 3.0 | 0.00 | 0.10 | 0.10 | 62 | 1013.8 |
| 20260904214119 | 82 | 119 | 1.0 | 3.0 | 0.00 | 0.10 | 0.10 | 63 | 1013.8 |
| 20260904213617 | 82 | 110 | 0.0 | 3.0 | 0.00 | 0.10 | 0.10 | 62 | 1013.8 |
| 20260904213113 | 83 | 87 | 4.0 | 6.0 | 0.00 | 0.10 | 0.10 | 60 | 1013.8 |
| 20260904212608 | 83 | 55 | 2.0 | 5.0 | 0.00 | 0.10 | 0.10 | 61 | 1013.5 |
| 20260904212103 | 84 | 355 | 2.0 | 2.0 | 0.00 | 0.10 | 0.10 | 60 | 1013.6 |
| 20260904211602 | 84 | 49 | 3.0 | 3.0 | 0.00 | 0.10 | 0.10 | 58 | 1013.5 |
| 20260904211058 | 84 | 138 | 1.0 | 3.0 | 0.00 | 0.10 | 0.10 | 62 | 1013.7 |
| 20260904210557 | 84 | 297 | 4.0 | 6.0 | 0.00 | 0.10 | 0.10 | 59 | 1013.6 |
| 20260904210053 | 84 | 91 | 1.0 | 1.0 | 0.00 | 0.10 | 0.10 | 60 | 1013.8 |
| 20260904205548 | 84 | 62 | 1.0 | 5.0 | 0.00 | 0.10 | 0.10 | 60 | 1014.0 |
| 20260904205045 | 84 | 70 | 1.0 | 3.0 | 0.00 | 0.10 | 0.10 | 58 | 1013.9 |
| 20260904204541 | 83 | 42 | 1.0 | 5.0 | 0.00 | 0.10 | 0.10 | 59 | 1014.0 |
| 20260904204037 | 84 | 36 | 1.0 | 3.0 | 0.00 | 0.10 | 0.10 | 59 | 1013.9 |
| 20260904203532 | 84 | 69 | 2.0 | 2.0 | 0.00 | 0.10 | 0.10 | 59 | 1013.9 |
| 20260904203029 | 82 | 109 | 1.0 | 3.0 | 0.00 | 0.10 | 0.10 | 63 | 1014.2 |
| 20260904202524 | 83 | 75 | 1.0 | 6.0 | 0.00 | 0.10 | 0.10 | 60 | 1014.2 |
| 20260904202021 | 84 | 62 | 1.0 | 7.0 | 0.00 | 0.10 | 0.10 | 58 | 1014.2 |
| 20260904201515 | 84 | 58 | 2.0 | 3.0 | 0.00 | 0.10 | 0.10 | 61 | 1013.9 |
| 20260904201011 | 84 | 78 | 1.0 | 5.0 | 0.00 | 0.10 | 0.10 | 62 | 1013.9 |
| 20260904200509 | 83 | 93 | 1.0 | 3.0 | 0.00 | 0.10 | 0.10 | 61 | 1014.1 |
| 20260904200005 | 82 | 14 | 1.0 | 2.0 | 0.00 | 0.10 | 0.10 | 65 | 1014.2 |
| 20260904195503 | 82 | 34 | 0.0 | 1.0 | 0.00 | 0.10 | 0.10 | 67 | 1014.1 |
| 20260904195002 | 82 | 140 | 1.0 | 3.0 | 0.00 | 0.10 | 0.10 | 63 | 1014.0 |
| 20260904194457 | 81 | 58 | 1.0 | 3.0 | 0.00 | 0.10 | 0.10 | 67 | 1014.1 |
| 20260904193952 | 81 | 126 | 1.0 | 2.0 | 0.00 | 0.10 | 0.10 | 67 | 1013.9 |